Regional Weather Roundup
Issued by NWS Upton, NY

Current Version | Previous Version | Text Only | Print | Product List | Glossary Off
Versions: 1 2 3 4 5 6 7 8 9 10 11 12 13 14 15 16 17 18 19 20 21 22 23 24 25 26 27 28 29 30 31 32 33 34 35 36 37 38 39 40 41 42 43 44 45 46 47 48 49 50
261 ASUS41 KOKX 230705 RWROKX REGIONAL WEATHER ROUNDUP NATIONAL WEATHER SERVICE NEW YORK NY 300 AM EDT SAT JUL 23 2016 NOTE: "FAIR" INDICATES FEW OR NO CLOUDS BELOW 12,000 FEET WITH NO SIGNIFICANT WEATHER AND/OR OBSTRUCTIONS TO VISIBILITY. NYZ071-072-176-178-NJZ106-104-230800- NEW YORK CITY METRO AREA CITY SKY/WX TMP DP RH WIND PRES REMARKS Central Park CLEAR 82 66 58 W6 29.85S LaGuardia APRT PTCLDY 84 67 56 W7 29.81S Kennedy INTL PTCLDY 82 69 64 W9 29.82S Newark/Liberty PTCLDY 82 67 60 W9 29.82S BRNX BOT. GARD N/A 82 64 54 W7 29.83R Wall St Helipt SUNNY 81 70 69 W5 29.83S Teterboro CLEAR 82 65 56 SW5 29.81S $$ NYZ177-179-078>081-230800- LONG ISLAND NEW YORK CITY SKY/WX TMP DP RH WIND PRES REMARKS FARMINGDALE CLEAR 79 71 76 W7 29.81F ISLIP CLEAR 76 70 82 W7 29.80S SHIRLEY CLEAR 77 70 79 W5 29.80F RIVERHEAD NOT AVBL WESTHAMPTON PTCLDY 76 69 79 W6 29.81F SOUTHAMPTON N/A 75 72 88 SW3 29.76S BRIDGEHAMPTON N/A 77 72 83 SW1 29.79S EAST HAMPTON CLOUDY 76 70 80 SW3 29.79S MONTAUK POINT N/A 77 71 82 SW6 29.79F $$ NYZ052-065-067-230800- HUDSON VALLEY CITY SKY/WX TMP DP RH WIND PRES REMARKS WHITE PLAINS CLEAR 75 68 78 CALM 29.82S NEWBURGH MOCLDY 73 68 83 CALM 29.85S MONTGOMERY CLEAR 70 67 90 CALM 29.84S POUGHKEEPSIE CLEAR 73 70 90 CALM 29.80F ALBANY PTCLDY 75 65 70 W13 29.79S $$ NJZ001-105-106-008-010-013-015-019>022-104-230800- NEW JERSEY CITY SKY/WX TMP DP RH WIND PRES REMARKS NEWARK/LIBERTY PTCLDY 82 67 60 W9 29.82S TETERBORO CLEAR 82 65 56 SW5 29.81S CALDWELL CLEAR 81 66 60 NW6 29.84R MORRISTOWN CLEAR 81 61 50 CALM 29.84S SOMERVILLE CLEAR 71 68 90 CALM 29.83S SUSSEX CLEAR 69 67 93 CALM 29.86S ANDOVER N/A 68 66 93 CALM 29.88S TRENTON CLEAR 78 68 71 VRB3 29.85S MILLVILLE CLEAR 79 71 76 W6 29.89S ATLANTIC CITY CLEAR 80 71 74 W9 29.88R WRIGHTSTOWN CLEAR 76 71 83 SW2 29.84R TOMS RIVER CLEAR 79 70 73 W7 29.86S BELMAR CLEAR 78 70 76 SW6 29.86S $$ PAZ047>061-062-071-230800- EASTERN PENNSYLVANIA CITY SKY/WX TMP DP RH WIND PRES REMARKS PHILADELPHIA CLEAR 80 71 74 SW7 29.87S ALLENTOWN CLEAR 73 66 78 SW6 29.88S SCRANTON CLEAR 73 64 73 CALM 29.90R $$ CTZ002-004>006-009-010-012-RIZ004-006-007-MAZ004-011-015-230800- SOUTHERN NEW ENGLAND IN CT CITY SKY/WX TMP DP RH WIND PRES REMARKS BRADLEY INTL PTCLDY 74 68 81 CALM 29.77S HARTFORD CLEAR 75 72 90 CALM 29.77F DANBURY CLEAR 71 66 84 W6 29.83F WTRBRY/OXFORD N/A 73 66 78 CALM 29.83F BRIDGEPORT CLEAR 80 70 71 SW6 29.79F MERIDEN PTCLDY 74 71 91 CALM 29.79S FOG NEW HAVEN CLEAR 76 71 85 CALM 29.79S CHESTER FAIR 77 72 83 VRB5 29.80F GROTON MOCLDY 78 70 76 W6 29.77F WILLIMANTIC NOT AVBL IN RI CITY SKY/WX TMP DP RH WIND PRES REMARKS PROVIDENCE PTCLDY 72 69 90 S5 29.77F BLOCK ISLAND CLOUDY 70 69 97 SW10 29.79F WESTERLY CLOUDY 76 69 79 CALM 29.78F IN MA CITY SKY/WX TMP DP RH WIND PRES REMARKS BOSTON PTCLDY 77 68 73 SW12 29.73F WORCESTER CLEAR 71 66 84 W9 29.80F WESTFIELD MOCLDY 69 66 90 CALM 29.78S PROVINCETOWN PTCLDY 72 67 84 MISG 29.76R NANTUCKET RAIN 71 67 87 N13 29.81S $$ ANZ330-335-338-340-345-350-353-355-230800- COASTAL MARINE OBSERVATIONS STATION/POSITION TIME SKY/WX TEMP WIND PRES VSBY WAVE AIR SEA DIR/SP/G HT/PER (UTC) (F) (DEG/KT/KT) (MB) (MI) (FT/S) NY HARB ENTRANCE 0550 76 71 240/ 10/ 12 1009.6 4/ 6 20S FIRE ISLAND 0550 76 74 230/ 16/ 17 1009.2 6/ 7 GREAT SOUTH BAY 0600 78 79 240/ 14/ 17 N/A 23 SSW MONTAUK P 0550 75 71 230/ 19/ 23 1009.1 6/ 7 15 E BARNEGAT LI 0622 74 N/A 4/ 6 HUDSON CANYON 0550 78 76 1010.6 5/ 6 KINGS POINT 0600 80 72 1009.5 EXECUTION ROCKS 0600 78 240/ 6/ 8 N/A CENTRAL LI SOUND 0600 76 71 290/ 10/ 12 N/A 2/ 4 EASTERN LI SOUND 0600 73 68 270/ 8/ 10 N/A ROBBINS REEF 0606 83 280/ 13/ 15 1009.2 $$ >>>>>>>>>>>>>>>>>>>>>>>>>>>> KEY <<<<<<<<<<<<<<<<<<<<<<<<<<< > < > SKY/WX - SKY CONDITION/PRESENT WEATHER < > TMP - TEMPERATURE IN FAHRENHEIT < > DP - DEWPOINT IN FAHRENHEIT < > RH - RELATIVE HUMIDITY IN PERCENT < > WIND - DIRECTION AND SPEED IN MPH < > PRES - MEAN SEA LEVEL PRESSURE IN INCHES OF HG < > WCI - WIND CHILL INDEX < > VSB - VISIBILITY IN MILES < > HX - HEAT INDEX < > TC - TEMPERATURE IN CELSIUS < > VRB - VARIABLE WIND DIRECTION < > < >>>>>>>>>>>>>>>>>>>>>>>>>>>> KEY <<<<<<<<<<<<<<<<<<<<<<<<<<<

USA.gov is the U.S. government's official web portal to all federal, state and local government web resources and services.